LUDI TANCE-4 01A

Last updated on Fri Jun 19 2026 17:09:35 GMT+0000 (Coordinated Universal Time)

1 57624U 23120A 26169.05713873 -.00000180 00000+0 00000+0 0 9998 2 57624 15.1019 193.9396 0001150 43.3474 139.2590 1.00268641 10553
UTC large
Height (km)
Speed (km/s)
/
Latitude / Longitude
Inclination (degrees)
Orbital Period (minutes)
Azimuth
Elevation
Range (km)
Doppler Factor

Next 0 passes for location: London (51.5072 / 0.1276)

Sorry there are no passes over London.
LUDI TANCE-4 01A